EET,Max TemperatureF,Mean TemperatureF,Min TemperatureF,Max Dew PointF,MeanDew PointF,Min DewpointF,Max Humidity, Mean Humidity, Min Humidity, Max Sea Level PressureIn, Mean Sea Level PressureIn, Min Sea Level PressureIn, Max VisibilityMiles, Mean VisibilityMiles, Min VisibilityMiles, Max Wind SpeedMPH, Mean Wind SpeedMPH, Max Gust SpeedMPH,PrecipitationIn, CloudCover, Events, WindDirDegrees
2014-2-1,79,66,54,57,45,37,60,44,29,30.01,29.93,29.86,6,6,6,18,13,,0.00,,,330
2014-2-2,86,68,50,61,47,34,82,48,16,29.86,29.76,29.68,6,6,6,8,4,,0.00,2,,321
2014-2-3,81,70,59,55,46,30,68,45,18,29.99,29.84,29.71,6,4,2,29,19,,0.00,,,330
2014-2-4,76,66,56,55,48,43,72,52,27,30.04,30.00,29.95,6,6,6,26,12,,0.00,3,,326
2014-2-5,74,65,56,54,47,35,82,52,30,30.06,30.01,29.95,6,6,6,23,14,,0.00,3,,327
2014-2-6,74,63,52,52,42,36,59,45,28,30.04,29.98,29.92,6,6,6,25,13,,0.00,,,325
2014-2-7,75,64,53,50,45,39,72,50,28,30.06,30.02,29.95,6,6,6,14,9,,0.00,,,324
2014-2-8,73,64,54,48,43,37,58,45,28,30.13,30.07,30.01,6,6,6,20,15,,0.00,,,327
2014-2-9,79,66,53,51,44,37,67,48,25,30.18,30.12,30.09,6,6,6,13,7,,0.00,,,326
2014-2-10,79,66,53,52,41,30,67,39,22,30.12,30.07,30.01,6,6,6,16,11,,0.00,,,335
2014-2-11,79,66,52,55,40,25,68,38,21,30.12,30.04,29.98,6,6,6,16,11,,0.00,,,335
2014-2-12,85,67,49,54,38,23,72,35,17,30.04,29.99,29.92,6,6,6,12,7,,0.00,,,324
2014-2-13,83,67,51,63,50,30,77,51,26,29.98,29.92,29.86,6,6,6,9,3,,0.00,,,145
2014-2-14,81,69,57,54,39,28,77,37,10,30.01,29.92,29.86,6,5,2,28,10,,0.00,,,306
2014-2-15,77,66,55,52,40,36,68,38,19,30.02,29.96,29.89,6,6,6,18,12,,0.00,2,,304
2014-2-16,72,64,57,52,46,41,68,48,27,30.08,29.97,29.86,6,6,6,30,18,,0.00,1,,324
2014-2-17,76,66,56,52,49,46,82,57,26,30.25,30.15,30.09,6,6,6,16,11,,0.00,1,,302
2014-2-18,81,68,56,55,50,45,72,54,27,30.27,30.21,30.15,6,6,6,14,10,,0.00,1,,331
2014-2-19,83,70,56,55,47,36,67,49,24,30.24,30.17,30.12,6,6,6,15,9,,0.00,,,325
2014-2-20,87,70,53,55,43,37,54,38,14,30.15,30.09,30.04,6,6,6,9,5,,0.00,,,345
2014-2-21,91,73,55,63,45,34,78,43,11,30.06,29.99,29.92,6,6,6,8,2,,0.00,1,,15
2014-2-22,92,75,58,64,50,34,73,42,20,29.92,29.87,29.80,6,6,6,14,3,,0.00,,,87
2014-2-23,80,70,61,55,49,41,72,45,18,29.98,29.92,29.86,6,6,6,23,16,,0.00,,,337
2014-2-24,78,68,58,59,53,46,72,56,40,29.95,29.90,29.83,6,6,6,24,14,,0.00,,,325
2014-2-25,76,68,59,54,45,37,77,45,22,30.09,30.00,29.92,6,6,6,29,21,,0.00,,,329
2014-2-26,78,68,57,54,46,34,72,47,24,30.12,30.06,30.01,6,6,6,24,15,,0.00,,,334
2014-2-27,78,67,56,50,43,35,67,42,22,30.09,30.04,29.98,6,6,6,28,15,,0.00,,,328
2014-2-28,77,66,54,55,45,39,64,49,30,30.09,30.02,29.95,6,6,6,20,13,,0.00,,,338